Regional Weather Roundup
Issued by NWS Upton, NY

Current Version | Previous Version | Graphics & Text | Print | Product List | Glossary Off
Versions: 1 2 3 4 5 6 7 8 9 10 11 12 13 14 15 16 17 18 19 20 21 22 23 24 25 26 27 28 29

000
ASUS41 KOKX 040304
RWROKX

REGIONAL WEATHER ROUNDUP
NATIONAL WEATHER SERVICE NEW YORK NY
1100 PM EDT TUE MAY 03 2016

NOTE: "FAIR" INDICATES FEW OR NO CLOUDS BELOW 12,000 FEET WITH NO
SIGNIFICANT WEATHER AND/OR OBSTRUCTIONS TO VISIBILITY.

NYZ071-072-176-178-NJZ106-104-040400-
NEW YORK CITY METRO AREA


CITY           SKY/WX    TMP DP  RH WIND       PRES   REMARKS
CENTRAL PARK   CLOUDY    52  49  89 E3        29.86F
LAGUARDIA APRT DRIZZLE   52  52 100 SE5       29.84F FOG
KENNEDY INTL   CLOUDY    50  48  93 E5        29.86S FOG
NEWARK/LIBERTY CLOUDY    51  50  97 SE5       29.84F
BRNX BOT. GARD   N/A     50  48  93 NE6       29.85F
TETERBORO      CLOUDY    52  48  86 CALM      29.83S
$$

NYZ177-179-078>081-040400-
LONG ISLAND NEW YORK

CITY           SKY/WX    TMP DP  RH WIND       PRES   REMARKS
FARMINGDALE    CLOUDY    50  48  93 E6        29.84F FOG
ISLIP          DRIZZLE   48  46  93 E7        29.84F FOG
SHIRLEY        CLOUDY    49  48  97 CALM      29.86F FOG
RIVERHEAD        N/A     48  48 100 CALM      29.86S
WESTHAMPTON    CLOUDY    44 N/A N/A E7        29.87F
EAST HAMPTON   CLOUDY    47  45  93 E3        29.86F
MONTAUK POINT    N/A     48  45  89 VRB5      29.87F
$$

NYZ052-065-067-040400-
HUDSON VALLEY

CITY           SKY/WX    TMP DP  RH WIND       PRES   REMARKS
WHITE PLAINS   FOG       49  48  97 E3        29.84S VSB 1/2
NEWBURGH       LGT RAIN  50  50 100 NE7       29.84F FOG
MONTGOMERY     CLOUDY    50  49  96 NE5       29.83F FOG
POUGHKEEPSIE   CLOUDY    53  50  89 CALM      29.83F FOG
ALBANY         CLOUDY    51  44  77 S5        29.85S
$$

NJZ001-105-106-008-010-013-015-019>022-104-040400-
NEW JERSEY

CITY           SKY/WX    TMP DP  RH WIND       PRES   REMARKS
NEWARK/LIBERTY CLOUDY    51  50  97 SE5       29.84F
TETERBORO      CLOUDY    52  48  86 CALM      29.83S
CALDWELL       CLOUDY    52  50  93 E5        29.83F FOG
MORRISTOWN     CLOUDY    52  50  93 CALM      29.83F FOG
SOMERVILLE     CLOUDY    52  50  93 E5        29.81F
SUSSEX         CLOUDY    51  49  92 NE5       29.83S
ANDOVER          N/A     51  50  96 CALM      29.82F
TRENTON        CLOUDY    51  49  92 SE7       29.82S
MILLVILLE      CLOUDY    51  48  89 E10       29.82S
ATLANTIC CITY  CLOUDY    50  49  96 NE12      29.83R FOG
WRIGHTSTOWN    CLOUDY    50  49  96 E9        29.80F
TOMS RIVER     CLOUDY    48  46  93 E7        29.84S
BELMAR         CLOUDY    49  48  97 E6        29.85F
$$

PAZ047>061-062-071-040400-
EASTERN PENNSYLVANIA

CITY           SKY/WX    TMP DP  RH WIND       PRES   REMARKS
PHILADELPHIA   CLOUDY    54  48  80 E9        29.82F
ALLENTOWN      CLOUDY    54  51  90 E5        29.82S FOG
SCRANTON       CLOUDY    51  49  92 NE3       29.79F
$$

CTZ002-004>006-009-010-012-RIZ004-006-007-MAZ004-011-015-040400-
SOUTHERN NEW ENGLAND
 IN CT

CITY           SKY/WX    TMP DP  RH WIND       PRES   REMARKS
BRADLEY INTL   CLOUDY    50  47  89 CALM      29.86S
HARTFORD       CLOUDY    53  48  83 CALM      29.86S
DANBURY        CLOUDY    50  48  93 S3        29.85F
WTRBRY/OXFORD    N/A     48  45  87 SE5       29.86F VSB 3/4
BRIDGEPORT     CLOUDY    50  48  93 E5        29.86S
MERIDEN        CLOUDY    51  48  89 CALM      29.86F
NEW HAVEN      CLOUDY    49  47  93 E5        29.85F
CHESTER        CLOUDY    48  48 100 CALM      29.86F FOG
GROTON         CLOUDY    49  49 100 E6        29.86S
WILLIMANTIC    CLOUDY    51  45  79 NE3       29.87S

 IN RI

CITY           SKY/WX    TMP DP  RH WIND       PRES   REMARKS
PROVIDENCE     CLOUDY    48  41  76 NE7       29.87F
BLOCK ISLAND   CLOUDY    47  45  93 NE7       29.87F
WESTERLY       CLOUDY    49  44  83 CALM      29.87S

 IN MA

CITY           SKY/WX    TMP DP  RH WIND       PRES   REMARKS
BOSTON         LGT RAIN  46  42  86 NE6       29.89F
WORCESTER      CLOUDY    44  40  85 CALM      29.86F
WESTFIELD      CLOUDY    50  47  89 CALM      29.86S
PROVINCETOWN   CLOUDY    45  43  93 NE7       29.88S
NANTUCKET      CLOUDY    47  44  90 NE8       29.85S
$$

ANZ330-335-338-340-345-350-353-355-040400-
COASTAL MARINE OBSERVATIONS


STATION/POSITION TIME  SKY/WX   TEMP    WIND        PRES    VSBY  WAVE
                                AIR SEA DIR/SP/G                  HT/PER
                 (UTC)          (F)     (DEG/KT/KT) (MB)    (MI)  (FT/S)
NY HARB ENTRANCE 0150            49 51   80/ 12/ 14 1010.4          4/ 5
20S FIRE ISLAND  0150            48 48   70/ 14/ 16 1010.2          4/ 6
GREAT SOUTH BAY  0200            49 55   90/ 12/ 16   N/A
23 SSW MONTAUK P 0250            47 47   70/ 12/ 14 1010.4          4/ 6
15 E BARNEGAT LI 0222               50                N/A           5/ 6
HUDSON CANYON    0150            48 48              1008.9          5/ 6
KINGS POINT      0200            51 54              1010.6
EXECUTION ROCKS  NOT AVBL
CENTRAL LI SOUND 0200            49     120/  4/  6   N/A           0
EASTERN LI SOUND 0200            48 47  100/  6/ 10   N/A
ROBBINS REEF     0200            50                 1009.9
$$


>>>>>>>>>>>>>>>>>>>>>>>>>>>> KEY <<<<<<<<<<<<<<<<<<<<<<<<<<<
>                                                          <
>     SKY/WX - SKY CONDITION/PRESENT WEATHER               <
>     TMP    - TEMPERATURE IN FAHRENHEIT                   <
>     DP     - DEWPOINT IN FAHRENHEIT                      <
>     RH     - RELATIVE HUMIDITY IN PERCENT                <
>     WIND   - DIRECTION AND SPEED IN MPH                  <
>     PRES   - MEAN SEA LEVEL PRESSURE IN INCHES OF HG     <
>     WCI    - WIND CHILL INDEX                            <
>     VSB    - VISIBILITY IN MILES                         <
>     HX     - HEAT INDEX                                  <
>     TC     - TEMPERATURE IN CELSIUS                      <
>     VRB    - VARIABLE WIND DIRECTION                     <
>                                                          <
>>>>>>>>>>>>>>>>>>>>>>>>>>>> KEY <<<<<<<<<<<<<<<<<<<<<<<<<<<






USA.gov is the U.S. government's official web portal to all federal, state and local government web resources and services.